Temp_Advection
nan nan nan nan nan nan nan nan nan nan nan nan nan nan nan nan nan nan nan nan nan nan nan nan nan nan nan nan nan nan nan nan nan nan nan nan nan nan nan nan nan nan nan nan nan nan nan nan nan nan nan nan nan nan nan nan nan nan nan nan nan nan nan nan nan nan nan nan nan
nan -1 -0 0 0 1 2 2 2 1 1 0 -0 -0 -0 -0 -1 -0 1 1 0 -0 -0 -1 -0 0 0 0 -0 -0 0 0 -0 -0 -0 -0 -0 0 -0 -0 -0 -0 -0 -0 0 1 1 1 2 2 2 1 -0 -1 -1 -1 -0 -0 -0 -0 0 0 0 0 0 0 0 1 nan
nan -0 -0 0 0 1 2 3 2 1 -0 -0 0 0 0 -0 -1 -0 0 0 -0 0 -0 -1 -1 -0 0 0 0 0 -0 0 0 0 0 0 0 0 -0 -0 0 0 0 0 1 1 2 2 2 1 0 -0 -1 -1 -1 -0 -0 -0 -0 -0 0 0 0 0 0 0 0 0 nan
nan -0 -0 0 0 2 3 3 1 0 -0 0 0 -0 -0 -0 0 1 1 0 0 0 -0 -0 -0 -0 0 0 0 0 1 1 0 0 -0 -0 -0 0 0 -0 0 0 0 0 1 1 2 1 0 0 -0 -0 -0 -1 -1 -1 -1 -0 -0 0 0 1 0 0 -0 -0 0 -0 nan
nan 0 0 -0 0 2 3 3 1 -0 -0 0 0 -0 -0 -0 0 1 1 0 -0 -0 -0 -0 -0 0 0 1 1 1 1 1 -1 -1 -1 -1 -0 -0 -0 -0 -0 0 0 0 0 1 2 1 -0 -0 -0 -0 -0 -1 -1 -1 -0 0 0 1 1 0 0 -0 -0 0 0 0 nan
nan 0 -0 -0 1 3 3 2 1 0 0 0 0 0 0 0 0 0 0 0 -0 -0 -0 -0 -0 0 0 1 2 2 0 -1 -3 -3 -2 0 1 0 -0 -0 -0 0 0 0 0 1 1 0 -0 -0 -0 0 -0 -0 -1 -0 0 1 1 1 0 -0 -0 -0 0 0 0 0 nan
nan -0 -1 0 2 3 2 1 1 0 0 1 1 0 0 0 0 -0 -0 0 -0 -0 -0 -0 -0 -0 -0 1 1 1 -1 -2 -3 -2 -0 1 1 0 -0 -0 0 0 0 0 1 1 1 1 0 0 1 1 0 -0 -0 0 1 1 1 0 -0 -0 0 0 -0 -0 -1 -0 nan
nan -1 -0 1 2 2 2 1 0 0 0 0 0 0 0 0 0 -0 -0 -0 -0 -0 -0 -0 -0 0 1 1 1 0 -0 -1 -1 -0 0 0 0 0 0 0 0 0 0 1 1 1 1 0 1 1 1 0 -0 -0 -1 -0 1 1 1 -0 -0 -1 -1 -1 -1 -0 -0 -0 nan
nan -0 -0 1 2 2 1 1 0 0 -0 -0 -0 -0 -0 -0 -0 -0 -0 -0 -0 -0 0 1 1 2 2 1 0 0 0 -0 -1 -1 -1 -0 0 1 1 1 1 1 1 2 1 1 0 0 -0 0 0 0 -1 -1 -1 -0 1 1 -0 -2 -2 -1 -1 -0 -0 -0 -0 -0 nan
nan -0 0 1 1 2 1 1 0 0 0 0 0 0 -0 -0 -0 -0 -0 0 0 1 2 2 2 2 1 -0 -0 0 0 -0 -2 -2 -1 1 1 1 1 2 2 2 2 1 0 -0 -1 -0 -0 0 1 0 -1 -1 -1 0 1 1 -1 -2 -2 -1 -0 -0 0 0 0 0 nan
nan -0 -0 1 1 2 2 1 0 0 0 0 0 0 -0 -0 -0 0 0 1 2 2 2 2 1 0 -0 -0 0 1 0 -1 -1 -1 0 1 1 1 1 2 2 1 1 0 -1 -1 -1 0 1 1 1 -0 -1 -1 -1 -0 0 -0 -1 -1 -0 -0 -0 -0 0 0 0 0 nan
nan -0 -0 1 1 1 1 1 1 0 -0 -0 -1 -1 -1 -0 0 0 1 1 1 0 0 0 1 0 -1 -0 -0 0 -0 -1 -1 -0 0 0 0 0 1 1 1 0 1 -0 -1 -1 -0 0 0 0 0 -0 -1 -1 -1 -1 -0 -0 0 0 0 -0 -0 0 0 0 0 0 nan
nan -0 0 1 1 1 1 0 -0 0 0 -0 -0 -0 0 0 0 -0 -1 -1 -1 -1 -1 -1 -0 -0 -0 -0 -0 -1 -1 -0 -0 -0 -0 -1 -1 -0 1 1 1 1 0 -0 -1 -1 -1 -1 -0 0 0 -0 -0 -1 -1 -1 -1 0 1 1 0 0 0 0 -0 -0 -0 -0 nan
nan 0 1 1 1 1 1 0 -0 -0 -0 0 1 1 1 0 -0 -1 -1 -1 -1 -1 -1 -1 -1 -0 0 0 -0 -1 -1 -1 0 0 -1 -1 -1 -0 0 1 2 2 1 -0 -1 -1 -1 -0 0 0 0 -0 -1 -1 -1 -1 0 1 1 1 0 -0 -0 0 -0 0 0 -0 nan
nan 1 1 1 1 1 0 0 0 -0 -0 0 1 1 1 -0 -1 -1 -1 -1 -1 -1 -0 -0 -0 -0 -0 -0 -0 -1 -1 -1 1 1 -0 -1 -0 0 1 2 3 2 1 -0 -1 -0 -0 -0 -0 -0 -1 -1 -1 -1 -1 0 1 1 1 0 -0 -0 -0 0 0 -0 -0 -0 nan
nan 0 0 0 0 0 0 0 0 0 0 1 1 0 0 0 -0 -1 -0 -0 -0 -0 -0 0 1 1 0 0 0 -0 -0 0 1 1 0 -0 0 1 2 2 2 1 1 0 -0 -0 -0 -1 -1 -1 -1 -1 -0 -0 0 1 1 1 0 -0 -0 -0 0 0 0 -0 -0 -0 nan
nan 0 0 0 0 0 0 0 0 0 0 1 0 0 0 0 -0 -0 -0 -0 -0 0 1 1 2 2 2 2 1 1 1 1 1 1 1 1 1 1 1 1 1 1 0 -0 -0 -1 -1 -1 -1 -1 -0 -0 0 1 1 1 0 0 -0 -0 -0 0 0 0 0 0 -0 -0 nan
nan 0 0 0 0 0 0 -0 -0 0 0 0 0 0 0 0 0 -0 -0 0 0 1 1 2 3 3 2 2 1 1 1 1 1 1 1 1 1 1 1 1 1 0 -0 -1 -1 -1 -1 -1 -0 0 0 0 0 0 0 0 -0 -0 -0 -0 0 0 0 0 0 0 0 0 nan
nan 0 0 0 0 0 0 -0 -0 0 0 0 0 0 0 0 0 0 0 0 0 1 1 1 1 1 1 0 1 1 1 1 1 1 1 1 1 0 0 0 0 -0 -1 -1 -1 -1 -0 -0 0 0 0 0 0 0 -0 -0 -0 -0 -0 0 0 0 0 0 0 0 0 0 nan
nan 0 0 0 0 0 0 0 0 0 0 0 0 0 0 0 0 0 0 0 0 0 1 1 1 0 0 0 0 1 1 1 1 0 0 0 -0 -0 -0 -0 -0 -0 -0 -1 -0 -0 0 0 0 0 0 0 0 -0 -0 -0 0 0 -0 0 0 0 0 0 0 0 0 0 nan
nan 0 0 0 0 0 0 0 0 0 0 0 0 0 0 0 0 0 0 0 0 0 0 1 1 1 1 1 1 1 1 1 0 0 -0 -0 -0 -0 -0 -0 -0 -0 -0 -0 -0 -0 -0 0 0 0 0 -0 -0 -0 -0 -0 0 0 0 0 0 0 0 0 0 0 0 0 nan
nan 0 0 0 0 0 0 0 0 0 0 0 0 0 0 0 0 0 0 0 0 0 1 1 1 1 1 1 1 1 0 0 0 -0 -0 -0 -0 -0 0 0 0 0 0 0 -0 -0 -0 -0 -0 -0 -0 -0 -0 -0 -0 -0 0 0 0 0 0 0 0 0 0 0 0 1 nan
nan 0 0 0 0 0 0 0 0 0 0 0 0 0 0 0 0 0 0 0 0 0 1 1 1 1 1 1 0 0 0 0 0 0 0 0 0 0 0 0 0 0 0 -0 -0 -0 -0 -0 -0 -0 -0 -0 -0 -0 -0 -0 0 0 0 0 0 0 0 0 0 0 1 1 nan
nan 0 0 0 0 0 0 0 0 0 0 0 0 0 0 0 0 0 0 0 0 0 1 1 1 1 1 0 0 0 0 0 0 0 0 0 0 0 0 0 0 -0 -0 -0 -0 -0 -0 -0 -0 -0 -0 -0 0 -0 -0 -0 -0 -0 -0 -0 0 0 0 0 0 0 1 1 nan
nan 0 0 0 0 0 0 0 0 0 0 0 0 0 0 0 0 0 0 0 0 0 1 1 0 0 0 0 0 0 0 0 0 0 0 0 0 0 0 0 -0 -0 -0 -0 -0 0 0 -0 -0 -0 0 -0 -0 -0 -0 -0 -0 -0 -0 -0 -0 0 0 0 0 0 1 1 nan
nan 1 0 0 0 0 0 0 0 0 0 0 0 0 0 0 0 0 0 0 0 0 1 1 0 0 0 0 0 0 0 0 0 0 0 0 0 0 -0 -0 -0 -0 -0 -0 -0 -0 -0 -0 -0 -0 -0 -0 -0 -0 -0 -0 -0 -0 -0 -0 -0 -0 -0 0 0 1 1 1 nan
nan 0 0 0 0 0 0 0 0 0 0 0 0 0 0 0 0 0 0 0 0 1 0 0 0 0 0 0 0 0 0 0 0 0 0 0 0 -0 -0 -0 -0 -0 -0 -0 -0 -0 -0 -0 -0 -0 -0 -0 -0 -0 -0 -0 -0 -0 -0 -0 -0 -0 -0 -0 0 1 1 1 nan
nan 0 0 0 0 0 0 0 0 0 0 0 0 0 0 0 0 0 0 0 0 0 0 0 0 0 0 0 0 0 0 0 0 0 0 -0 -0 -0 -0 -0 -0 -0 -0 -0 -0 -0 -0 -0 -0 -0 -0 -0 -0 -0 -0 -0 -0 -0 -0 -0 -1 -1 -1 -0 -0 0 1 2 nan
nan 0 0 0 0 0 0 0 0 0 0 0 0 0 0 0 0 0 0 0 0 0 0 0 0 0 0 0 0 0 0 0 0 -0 -0 -0 -0 -0 0 0 0 -0 -0 -0 -0 -0 -0 -0 -0 -0 -0 -0 -0 -0 -0 -0 -0 -0 -0 -1 -1 -1 -1 -0 -0 -0 0 1 nan
nan 0 0 0 0 0 0 0 0 0 0 0 0 0 0 0 0 0 0 0 0 0 0 0 0 0 0 0 0 0 0 0 -0 -0 -0 -0 0 0 0 0 0 -0 -0 -0 -0 -0 -0 -0 -0 -0 -0 -1 -0 -0 -0 -0 -0 -0 -1 -1 -1 -1 -1 -0 -0 -0 -0 0 nan
nan 0 0 0 0 0 0 0 0 0 0 0 0 0 0 0 0 0 0 0 0 0 0 0 0 0 0 0 0 0 0 -0 -0 0 0 0 0 0 0 0 0 -0 -0 -0 -0 -0 -0 -0 -0 -0 -0 -1 -0 -0 -0 -0 -0 -1 -1 -1 -1 -0 -0 -0 -0 -0 -0 -0 nan
nan 0 0 0 0 0 0 0 0 0 0 0 0 0 0 0 0 0 0 0 0 0 0 0 0 0 0 0 0 0 -0 -0 0 0 0 0 0 0 0 0 -0 -0 -0 -0 -0 -0 -0 -0 -0 -0 -1 -1 -0 -0 -0 -0 -0 -1 -1 -1 -0 -0 0 0 -0 -0 -0 -0 nan
nan 0 0 0 0 0 0 0 0 0 0 0 0 0 0 0 0 0 0 0 0 0 0 0 0 0 0 -0 -0 -0 0 0 0 0 0 0 0 0 0 -0 -0 -0 -0 -0 -0 -0 -0 -0 -0 -1 -1 -1 -0 -0 -0 -0 -0 -1 -1 -0 -0 0 0 0 0 0 0 0 nan
nan 0 0 0 0 0 0 0 0 0 0 0 0 0 0 0 0 0 0 0 0 0 0 0 0 0 -0 -0 -0 0 0 0 0 0 0 0 0 0 0 -0 -0 -0 -0 -0 -0 -0 -0 -0 -0 -1 -1 -1 -0 -0 -0 -0 -0 -0 -0 -0 0 0 0 0 1 1 0 0 nan
nan 0 0 0 0 0 0 0 0 0 0 0 0 0 0 0 0 0 0 0 0 0 0 0 -0 -0 -0 -0 0 0 0 0 0 0 0 0 0 0 0 -0 -0 -0 -0 -0 -0 -0 -0 -0 -1 -1 -1 -0 -0 0 -0 -0 -0 -0 -0 0 0 0 0 0 1 1 1 0 nan
nan 0 0 0 0 0 0 0 0 0 0 0 0 0 0 0 0 0 0 0 0 0 -0 -0 -0 -0 -0 -0 0 0 0 0 0 0 0 0 0 0 0 -0 -0 -0 -0 -0 -0 -0 -0 -0 -1 -1 -1 -0 0 0 -0 -0 -0 -0 0 0 1 1 0 1 1 1 1 0 nan
nan 0 0 0 0 0 0 0 0 0 0 0 0 0 0 0 0 0 0 0 0 0 -0 -0 -0 -0 0 0 0 0 0 0 0 0 0 0 0 0 0 -0 -0 -0 -0 -0 -0 -0 -0 -1 -1 -1 -0 -0 0 0 -0 -0 -0 0 0 1 1 1 1 1 1 1 0 0 nan
nan 0 0 0 0 0 0 0 0 0 0 0 0 0 0 0 0 0 0 0 0 0 0 -0 0 0 0 0 0 0 0 0 0 0 0 0 0 0 0 0 -0 -0 -0 -0 0 -0 -0 -1 -1 -1 -0 0 0 0 -0 -0 0 0 1 1 1 1 1 1 1 0 0 0 nan
nan 0 0 0 0 0 0 0 0 0 0 0 0 0 0 0 0 0 0 0 0 0 0 0 0 0 0 0 -0 -0 0 0 0 0 -0 -0 -0 0 0 0 -0 -0 -0 0 0 -0 -0 -1 -1 -1 -0 0 0 0 -0 -0 0 0 1 1 1 1 1 1 1 0 0 0 nan
nan 0 0 0 0 0 0 0 0 0 0 0 0 0 0 0 0 0 0 0 0 0 0 0 0 0 0 -0 -0 0 0 0 0 0 -0 -0 -0 0 0 0 -0 -0 -0 -0 0 -0 -1 -1 -1 -1 0 0 0 0 0 0 0 1 1 1 1 1 1 0 0 0 0 0 nan
nan nan nan nan nan nan nan nan nan nan nan nan nan nan nan nan nan nan nan nan nan nan nan nan nan nan nan nan nan nan nan nan nan nan nan nan nan nan nan nan nan nan nan nan nan nan nan nan nan nan nan nan nan nan nan nan nan nan nan nan nan nan nan nan nan nan nan nan nan
Wind_Speed
27 25 25 25 26 26 25 22 18 13 11 14 14 15 14 13 13 15 16 16 13 11 11 13 16 17 16 14 14 16 17 18 18 17 16 15 15 15 16 17 17 18 19 19 20 21 22 23 24 24 22 20 17 16 17 19 20 21 22 22 23 23 22 22 21 21 21 21 22
26 26 26 26 27 27 25 20 17 13 10 8 9 10 10 10 11 13 14 12 7 5 7 11 14 15 14 13 13 14 15 15 15 15 14 14 14 15 16 17 18 19 20 21 23 24 25 23 20 17 15 14 12 14 17 18 19 20 21 22 22 21 21 21 22 22 22 22 24
25 25 25 25 25 26 24 18 14 11 11 11 10 9 9 9 11 13 13 10 5 4 6 9 12 14 14 14 14 14 14 14 14 12 12 12 13 14 16 17 18 20 21 23 24 24 22 17 12 9 8 7 10 14 17 17 18 19 20 21 21 21 21 22 23 23 24 24 25
25 26 25 25 25 26 23 17 11 8 8 9 9 10 10 9 11 12 11 8 5 4 5 8 10 12 14 15 15 15 15 15 13 11 9 9 11 13 15 17 19 20 22 23 24 22 17 12 8 7 6 3 6 12 16 18 19 20 21 22 22 23 23 24 24 25 25 25 25
27 27 26 26 27 26 22 16 12 11 11 10 11 10 9 8 9 9 7 3 2 3 5 8 10 11 13 15 16 17 19 20 17 12 9 9 10 12 14 17 19 21 22 22 23 22 19 13 10 9 6 5 7 10 15 21 23 24 24 24 25 25 25 25 25 25 25 24 25
27 27 27 28 28 26 21 16 15 15 15 15 14 13 11 8 5 4 3 2 1 4 7 9 11 13 14 15 15 16 18 18 14 12 11 12 13 14 15 17 19 20 21 21 22 22 21 17 14 13 12 10 10 14 20 24 27 28 27 27 26 26 25 25 24 24 24 25 25
27 28 28 29 27 24 19 15 14 15 16 18 18 15 11 7 4 2 1 1 2 4 7 9 11 14 16 18 17 16 16 16 16 16 17 16 16 17 18 19 19 20 20 21 21 21 20 19 18 18 18 19 21 23 25 27 28 28 26 25 24 24 24 24 24 24 24 24 24
27 28 29 29 25 21 17 14 13 14 16 19 19 16 12 8 5 3 3 4 4 5 6 8 11 15 18 20 20 19 19 19 20 20 20 19 19 19 20 20 19 19 19 21 20 20 19 19 19 20 20 22 23 24 25 26 26 24 23 22 22 22 23 22 22 22 22 22 23
25 27 29 30 27 21 17 14 14 15 17 19 18 16 13 10 8 6 5 5 6 7 10 13 16 20 22 22 22 22 22 23 23 22 22 22 22 22 22 21 19 19 20 21 21 19 18 18 18 19 19 19 20 21 22 23 23 22 20 21 21 21 21 20 20 20 20 21 21
22 23 25 27 26 22 17 15 15 17 19 20 19 17 15 13 11 10 10 10 11 14 16 19 21 23 24 24 24 24 24 23 23 24 24 24 23 22 21 20 19 20 21 21 20 19 19 20 20 20 19 19 20 21 22 23 22 21 20 20 20 19 19 19 19 19 20 20 21
18 19 20 22 22 21 19 16 15 17 20 20 19 17 17 18 17 16 16 17 18 19 20 21 22 23 24 25 25 25 23 22 23 24 24 23 20 19 19 18 18 19 19 18 18 19 21 21 22 21 20 20 21 22 23 24 24 23 22 20 19 18 18 18 19 19 20 20 21
15 15 16 17 18 19 19 17 16 16 17 17 16 16 17 20 20 20 20 21 22 22 21 21 21 22 23 25 25 25 23 22 21 21 19 18 16 16 16 16 15 15 15 16 17 19 21 22 22 22 21 21 22 23 24 24 24 23 21 19 18 18 18 18 19 20 20 21 21
15 15 15 15 16 17 18 18 17 16 15 14 14 16 19 21 21 19 17 17 19 20 20 19 20 22 23 25 25 24 23 22 21 18 16 14 13 14 16 17 17 17 17 18 19 20 22 23 24 24 23 22 21 21 21 22 22 21 20 19 18 18 18 19 19 20 21 21 21
17 17 16 15 15 17 18 19 18 17 16 15 15 17 20 22 20 16 12 11 12 13 15 17 20 22 24 25 24 24 23 23 22 20 17 15 15 16 19 22 22 22 21 21 22 22 23 23 23 23 22 21 19 19 20 20 21 20 20 19 19 18 19 19 20 21 21 21 21
16 16 16 15 15 16 16 17 17 17 16 16 15 17 19 21 18 14 10 9 9 11 13 16 19 23 24 25 24 23 23 24 25 23 21 19 20 22 24 26 25 24 23 23 22 22 21 20 20 19 18 18 18 18 19 20 20 19 19 18 18 19 19 20 20 21 21 21 21
16 16 15 15 15 15 15 15 14 14 13 12 12 14 18 19 16 13 12 12 13 14 15 18 21 24 25 25 24 24 25 27 28 27 25 23 24 25 26 26 25 24 23 22 21 20 19 18 18 17 17 17 18 18 19 19 19 18 17 17 18 18 19 19 20 20 21 21 21
17 16 16 16 16 16 15 15 14 13 11 9 8 10 14 15 14 12 12 13 15 17 20 22 24 27 28 27 27 27 28 30 31 30 28 25 25 25 25 24 24 23 22 20 18 17 17 17 17 17 18 18 18 18 18 17 17 17 17 17 18 18 18 19 19 20 20 21 21
18 18 17 17 17 16 16 15 15 13 12 9 7 7 9 11 11 10 11 13 15 18 21 23 25 27 27 27 26 27 27 29 29 28 26 25 24 23 23 23 22 21 20 18 17 17 17 17 17 18 18 18 17 17 16 16 16 16 17 17 18 18 19 19 20 20 21 21 21
19 19 18 18 17 17 16 15 14 13 11 9 7 7 8 9 9 10 10 12 14 16 18 20 21 22 22 23 24 24 24 24 24 24 23 22 22 21 21 21 20 19 18 18 17 17 17 17 17 17 17 16 16 15 15 15 16 16 17 17 18 18 19 20 20 21 21 22 22
18 18 18 18 18 17 16 15 13 11 9 8 7 8 8 9 10 10 11 12 13 14 16 17 18 18 19 20 21 21 21 21 20 21 21 21 20 20 19 18 18 17 17 17 17 17 17 17 16 16 15 15 15 15 15 15 16 16 17 18 18 19 20 20 21 21 22 22 23
17 17 17 17 17 16 15 14 12 10 9 8 8 9 9 10 11 11 12 12 13 14 15 16 17 17 18 19 20 20 20 20 19 19 19 19 19 18 18 17 17 17 17 17 17 16 16 16 15 15 15 14 14 14 15 15 15 16 16 17 18 19 20 21 21 22 23 23 24
15 15 15 15 14 13 12 11 10 9 8 8 9 10 10 11 12 12 12 13 13 14 15 16 16 17 18 18 19 19 19 19 18 18 18 18 18 18 17 17 17 17 17 16 16 16 15 15 15 14 14 14 14 14 14 14 15 15 16 17 18 19 20 21 22 22 23 24 24
13 13 13 12 11 10 9 8 8 8 9 9 10 10 11 12 12 12 12 13 13 14 14 15 16 16 17 17 17 18 18 18 18 18 17 17 18 17 17 17 17 17 16 16 16 15 15 14 14 14 13 13 13 13 13 14 14 15 16 17 18 19 20 21 22 23 23 24 24
12 11 10 10 8 7 7 7 7 8 8 9 10 10 11 11 12 12 12 12 13 13 14 14 15 15 16 16 17 17 17 18 18 17 17 17 17 17 17 17 16 16 16 15 14 14 13 13 13 13 12 12 12 13 13 14 14 15 16 17 18 19 20 21 22 23 24 24 25
11 10 9 8 7 6 6 6 7 7 8 9 10 10 11 11 11 12 12 12 12 13 13 14 15 15 16 17 17 17 18 18 18 18 17 17 17 17 16 16 16 15 14 14 13 13 12 12 12 12 12 12 12 13 13 14 15 16 17 18 19 20 21 22 23 24 25 25 25
9 8 8 7 6 6 6 6 7 7 8 9 10 10 11 11 11 11 12 12 12 13 14 14 15 16 16 17 17 18 18 18 18 17 17 17 16 16 16 15 14 14 13 13 13 12 12 12 12 12 12 12 13 13 14 15 16 17 18 19 20 21 22 23 24 25 25 26 26
8 7 7 7 7 7 7 7 8 8 9 10 10 11 11 11 11 12 12 12 13 14 14 15 16 16 17 17 17 18 18 18 17 17 17 16 16 15 15 15 14 13 13 12 12 12 12 12 12 13 13 13 14 14 15 16 17 18 19 20 21 22 22 23 24 25 25 26 26
7 7 7 7 7 7 8 8 9 9 10 10 11 11 11 11 12 12 12 13 14 14 15 16 16 17 17 17 17 17 17 17 17 17 17 16 16 15 15 14 13 13 12 12 12 12 12 12 13 13 14 15 15 16 17 17 18 19 20 21 22 22 23 24 24 25 25 26 26
6 6 7 7 7 8 8 9 9 10 10 11 11 11 11 12 12 12 13 14 14 15 16 16 17 17 17 17 17 17 17 17 17 17 16 16 15 15 14 13 13 12 12 12 12 12 12 13 13 14 15 16 16 17 18 18 19 20 21 22 22 23 24 24 25 25 25 25 25
6 6 7 7 8 8 8 9 9 10 10 11 11 11 12 12 12 13 13 14 14 15 16 16 16 16 17 17 17 17 18 17 17 16 16 15 14 13 13 12 12 12 12 12 12 12 12 13 14 15 16 16 17 18 19 19 20 21 21 22 23 24 24 24 25 25 24 24 24
6 7 7 8 8 8 9 9 9 10 10 11 11 11 12 12 12 12 13 14 14 15 16 16 16 16 16 17 17 17 17 17 17 16 15 14 13 12 12 12 12 12 12 12 12 12 13 13 14 15 16 17 18 18 19 20 20 21 22 22 23 24 24 24 24 24 23 23 22
7 7 7 8 8 9 9 9 9 10 10 10 11 11 11 12 12 13 13 14 15 15 16 16 16 16 16 17 17 17 17 17 16 15 14 13 12 12 12 12 12 12 12 13 13 13 14 14 15 16 17 18 18 19 20 20 20 21 21 22 23 23 23 23 22 22 21 21 20
7 7 8 8 8 9 9 9 9 10 10 10 11 11 11 12 12 13 14 14 15 15 15 16 16 16 17 17 17 17 17 16 15 14 14 13 13 12 12 12 13 13 13 13 14 14 15 15 16 17 18 19 19 20 20 20 20 21 21 21 22 22 21 21 20 20 19 19 18
8 8 8 8 8 9 9 9 9 10 10 11 11 11 12 12 13 14 14 15 15 15 16 16 16 17 17 18 18 17 17 16 15 15 14 14 13 13 13 13 14 14 14 15 15 15 16 17 17 18 19 19 20 20 20 20 20 20 20 20 21 20 20 19 18 18 17 16 16
8 8 8 8 8 8 9 9 9 10 10 11 12 12 12 13 13 14 14 15 15 16 16 16 17 17 18 18 18 18 17 16 16 15 15 14 14 13 13 14 15 15 16 16 16 17 17 18 18 19 20 20 20 20 20 20 20 20 20 20 20 19 18 17 17 16 15 14 13
9 9 8 8 8 8 8 9 9 10 11 11 12 12 13 13 14 14 15 16 16 16 17 17 18 18 18 18 18 18 17 17 17 16 16 15 15 14 14 15 16 17 17 17 17 17 18 18 19 20 20 20 20 20 19 19 19 19 19 19 18 17 16 15 14 14 13 12 11
10 9 9 9 9 8 8 8 9 10 10 11 12 12 13 14 14 15 16 16 16 17 17 18 18 18 18 18 18 18 18 18 17 17 16 16 16 15 15 16 17 18 18 18 18 18 18 19 20 20 20 20 20 20 19 19 19 19 18 18 17 16 14 13 12 12 11 10 9
11 10 10 10 9 9 8 8 8 9 10 10 11 12 13 14 15 15 16 16 17 17 17 18 18 18 18 19 19 19 19 18 18 17 17 17 17 17 17 17 18 19 19 19 19 19 19 19 20 20 20 20 20 19 19 19 18 18 17 16 16 14 13 12 11 10 10 9 9
12 12 11 11 10 10 9 9 8 8 9 10 11 12 13 14 15 15 16 16 17 17 17 18 18 18 19 19 19 19 19 18 18 18 17 18 18 18 18 18 18 19 20 19 19 19 19 20 20 21 20 20 20 19 19 18 17 16 16 15 14 13 12 11 10 10 9 9 9
13 13 12 12 12 11 10 9 9 8 9 9 10 11 12 13 14 15 15 16 16 17 17 17 18 18 19 19 19 19 19 18 18 18 18 19 19 19 19 19 19 20 20 20 20 19 20 20 21 21 20 20 19 19 18 17 16 15 14 14 13 12 11 11 10 10 10 9 9
14 13 13 13 12 12 11 10 10 9 9 9 10 10 11 12 13 14 15 16 16 17 17 17 18 19 19 19 19 19 19 18 19 19 20 20 20 20 20 20 20 20 20 20 20 20 20 21 21 21 20 19 19 18 17 15 14 14 13 13 12 12 11 11 11 11 10 10 10
Wind_Direction
238 240 242 243 244 240 235 233 233 238 247 247 245 244 243 241 239 244 250 253 251 250 249 246 241 240 241 242 240 237 236 236 234 233 232 233 234 236 237 239 239 239 239 238 237 237 237 238 239 238 236 232 224 220 222 226 232 237 243 247 251 254 257 260 263 266 270 274 279
240 241 242 242 241 238 235 234 238 248 258 259 247 240 233 224 225 233 238 239 244 256 258 251 244 242 242 244 244 240 235 232 230 228 227 230 233 235 237 239 240 241 241 241 241 242 243 243 239 232 225 222 219 221 226 230 235 241 246 249 252 254 256 258 259 259 261 265 270
249 248 247 246 244 241 239 238 242 250 257 255 239 216 196 191 204 217 224 225 233 254 260 255 250 247 244 242 240 238 234 228 226 225 225 227 232 235 237 239 240 241 243 244 246 247 245 239 229 210 198 211 237 244 243 242 243 246 248 251 253 255 256 257 258 258 258 260 264
254 254 254 254 252 248 243 238 238 246 256 254 234 212 194 184 192 203 211 216 228 254 268 268 264 261 256 249 242 239 237 235 236 237 236 235 236 237 237 237 238 240 243 246 250 249 243 226 198 170 159 190 255 264 261 255 251 249 250 251 253 255 256 257 258 258 260 263 268
252 254 255 256 254 250 243 235 233 238 243 242 233 220 206 192 186 184 183 182 230 282 287 287 285 282 276 266 255 248 245 245 247 251 254 250 252 250 244 238 237 237 240 244 249 249 244 224 187 170 179 232 260 259 255 253 251 249 248 249 250 252 254 256 258 262 266 272 277
249 251 252 251 249 245 238 229 229 229 228 226 222 217 213 208 196 173 140 109 298 284 284 285 287 287 286 282 270 253 242 237 235 235 241 252 261 263 257 247 240 237 238 241 245 247 243 229 207 194 193 204 219 230 237 243 245 245 245 245 247 249 253 257 262 267 272 277 280
248 249 249 248 246 241 233 224 221 218 217 220 217 211 206 206 212 227 269 315 283 270 270 276 281 281 279 275 264 243 223 214 215 222 231 243 256 263 261 254 244 239 239 242 245 245 242 234 222 216 213 211 214 221 230 237 241 243 245 246 248 251 256 261 266 270 274 278 279
249 249 250 252 250 245 235 226 219 216 215 216 212 208 206 211 214 222 252 283 286 272 260 260 261 261 259 254 243 228 217 217 223 227 232 239 248 256 256 251 243 238 240 244 247 246 244 240 234 230 228 226 227 229 233 238 242 246 249 252 256 258 261 265 269 272 275 276 276
250 251 253 256 256 252 242 230 222 218 212 206 204 204 208 217 221 219 222 245 256 248 238 237 240 243 242 237 227 222 224 232 235 236 236 238 245 253 255 247 236 232 237 244 246 247 246 244 242 241 240 238 238 239 241 244 248 252 257 261 265 266 268 270 273 274 275 274 274
251 254 256 259 259 256 247 232 221 213 208 203 203 208 218 225 230 224 216 215 219 222 227 234 240 242 238 231 224 222 226 233 237 237 238 241 250 261 263 251 237 233 237 243 245 245 246 247 248 248 247 246 246 247 249 252 255 259 264 268 271 272 273 274 274 274 274 274 273
250 254 258 261 263 262 257 243 229 218 210 205 204 214 229 238 240 234 224 217 217 222 231 240 246 246 241 234 230 230 233 236 237 238 241 248 260 271 272 259 243 239 241 244 243 242 244 247 249 250 250 250 251 252 255 257 260 263 266 270 272 274 274 275 275 275 274 274 274
247 252 256 260 262 262 259 254 246 232 220 215 215 222 232 237 240 237 231 226 226 229 235 241 248 251 248 244 242 243 245 247 247 246 249 255 265 273 273 263 247 239 240 243 244 243 244 247 250 252 253 253 254 255 256 258 261 264 267 271 273 274 275 276 276 275 275 275 275
245 248 251 254 255 254 253 251 249 244 239 238 239 236 232 231 231 231 229 228 230 231 231 233 239 245 250 252 253 256 258 259 257 254 252 253 257 262 265 262 251 242 239 243 247 248 247 247 249 251 253 255 256 256 258 259 262 265 268 271 273 274 275 275 275 275 275 275 275
243 245 247 248 249 248 246 246 245 245 248 252 252 243 233 227 223 219 219 224 232 235 232 225 223 228 237 247 255 260 262 261 258 254 248 242 236 237 245 251 250 247 245 246 249 249 248 247 248 250 253 255 257 258 260 261 262 264 267 269 271 273 274 274 274 274 274 274 275
241 243 246 248 249 249 248 246 245 246 248 250 247 238 229 222 216 213 214 222 235 244 243 234 225 222 225 234 244 249 250 250 251 250 246 238 229 226 230 237 243 248 251 253 252 252 251 251 252 254 255 257 259 260 260 260 260 262 265 268 271 273 274 274 274 275 275 276 277
243 246 249 252 255 257 258 257 256 255 254 251 243 232 224 218 215 215 218 223 230 237 241 238 231 225 223 226 233 238 239 240 243 245 244 239 232 229 229 235 242 249 254 256 256 257 258 258 259 260 260 261 261 260 259 259 261 264 268 271 273 274 275 276 277 278 279 280 281
245 248 251 255 260 264 267 269 270 269 268 264 248 230 223 220 219 220 223 225 227 230 231 230 227 224 224 226 231 235 236 237 239 240 241 239 237 235 237 241 247 252 255 257 259 260 261 261 261 261 260 259 258 258 259 262 266 270 273 274 275 276 277 278 280 281 282 282 283
248 250 253 257 261 266 270 273 274 275 274 270 254 235 228 227 227 227 226 224 225 227 228 227 226 226 227 230 233 235 235 234 235 237 239 241 242 243 245 248 251 254 256 257 258 257 256 255 254 254 254 254 255 258 262 266 270 273 275 276 277 278 280 281 282 283 283 283 283
253 255 257 260 263 266 269 271 273 273 271 264 248 234 229 229 229 226 223 220 220 223 226 228 229 231 234 238 240 239 237 235 235 237 240 244 247 248 248 248 248 249 249 249 248 247 246 247 247 249 251 254 257 261 265 268 271 273 275 277 279 280 282 283 283 283 283 284 283
259 260 261 263 264 266 267 268 269 267 262 250 235 227 224 224 223 221 219 216 215 218 222 226 230 234 238 242 244 244 243 242 242 242 244 245 246 245 243 242 240 239 239 239 240 241 243 245 247 250 253 256 260 263 266 268 271 274 277 279 281 282 283 284 283 283 283 283 283
267 265 265 264 264 265 265 264 262 256 246 234 225 221 220 221 220 219 218 216 216 217 220 224 228 231 234 237 240 243 244 244 244 243 241 239 238 236 235 233 232 232 234 236 239 242 244 247 249 252 255 257 260 263 266 269 273 276 279 281 283 283 284 284 284 284 283 283 282
271 269 267 265 264 262 260 256 250 241 231 223 219 218 219 220 221 220 220 219 219 220 222 224 227 229 232 234 236 238 239 239 237 235 232 229 228 227 228 228 230 232 234 237 239 242 244 246 249 252 254 258 261 265 268 272 275 278 280 282 284 285 286 286 286 285 285 284 283
269 267 265 263 260 256 250 242 234 226 221 218 218 219 221 222 223 224 224 224 225 225 226 227 228 230 231 232 232 232 231 229 228 225 223 222 223 224 226 229 231 233 235 237 238 241 243 245 248 252 256 260 264 268 272 276 279 281 283 285 287 288 289 289 289 289 288 286 284
263 261 259 255 250 243 235 228 222 219 218 219 221 223 225 226 228 229 230 231 231 231 230 230 229 229 228 227 225 223 222 221 220 220 220 221 223 226 228 231 233 234 235 236 238 240 243 247 250 254 258 263 267 271 275 279 282 284 287 289 290 292 293 293 292 291 290 288 286
256 253 249 243 238 232 227 224 222 222 223 225 227 229 231 233 234 236 236 236 235 233 231 229 227 225 223 221 219 218 217 217 218 220 222 224 227 229 230 232 232 234 235 236 238 241 244 248 252 256 261 265 270 274 278 281 284 287 289 291 292 293 294 294 293 292 291 289 286
249 245 241 236 233 231 230 229 229 230 231 232 233 235 236 238 239 239 238 237 234 231 228 225 223 221 219 218 217 216 217 218 220 223 225 227 228 229 230 230 231 232 234 236 238 241 245 249 253 257 262 266 271 275 279 282 285 287 289 291 292 293 293 293 292 291 290 288 285
244 241 238 237 236 236 236 237 236 237 237 238 239 240 241 241 240 239 236 233 230 226 223 221 219 217 216 217 217 219 220 222 223 224 225 226 226 226 227 227 229 231 234 237 240 245 249 254 259 263 267 270 274 277 280 283 285 288 290 292 292 293 292 292 291 291 290 288 285
244 243 242 242 243 243 243 242 242 241 242 242 242 242 242 241 238 235 232 229 225 222 220 218 217 216 216 218 219 221 222 223 224 224 224 223 223 224 225 227 230 234 238 242 248 253 259 265 270 274 277 279 281 283 284 286 289 291 292 293 293 293 293 292 292 291 290 288 285
247 248 249 250 250 250 249 247 246 245 244 244 243 242 241 239 236 232 229 225 222 220 218 217 217 217 218 220 221 222 223 223 222 222 222 222 222 225 228 232 237 242 247 252 258 264 270 275 280 283 285 286 287 288 289 291 293 295 295 295 295 294 294 294 294 294 292 289 284
252 254 255 256 256 255 253 250 247 246 244 243 243 242 240 237 234 230 227 224 221 220 219 219 219 220 221 222 222 222 222 221 221 220 220 222 225 229 234 240 246 252 257 262 267 273 278 282 285 288 289 290 291 292 293 295 296 297 297 297 296 296 296 297 297 297 296 292 286
256 259 261 261 260 258 255 251 248 246 245 244 243 242 240 237 234 231 227 225 222 221 220 221 222 222 223 223 223 222 221 220 220 220 222 225 229 235 242 249 255 260 265 269 274 279 283 287 290 291 293 293 294 296 297 298 299 299 298 297 297 297 298 299 301 301 300 297 291
256 260 264 265 264 261 257 252 249 246 245 244 243 242 240 238 235 231 228 226 224 223 223 224 224 224 224 224 222 221 220 220 221 223 226 231 237 243 250 256 262 267 271 275 279 284 288 291 294 295 296 297 298 299 300 300 300 299 298 297 297 298 299 302 304 305 304 301 296
255 260 265 267 266 263 258 253 249 246 244 243 243 241 240 238 235 232 229 228 227 226 227 227 227 226 225 224 222 221 221 222 224 227 232 237 243 249 256 262 267 272 275 279 283 287 291 295 297 298 300 300 301 302 302 301 300 299 298 297 297 299 301 304 306 307 306 303 298
254 258 264 267 268 265 260 255 249 245 243 241 240 240 239 237 235 233 231 230 230 229 230 230 229 228 227 225 223 223 223 225 228 232 237 242 248 254 260 266 271 274 278 282 286 290 294 297 299 300 301 302 303 303 303 301 299 298 297 296 297 299 302 305 307 308 306 302 296
252 256 262 267 269 268 263 257 251 245 241 239 238 237 237 236 235 234 233 232 232 232 232 232 231 230 229 228 226 226 227 229 233 237 242 247 252 258 264 269 273 276 280 284 288 291 295 298 300 301 302 303 303 303 302 300 298 296 295 295 296 298 301 304 306 306 304 299 292
251 254 258 264 268 268 266 260 253 246 241 238 236 236 235 235 235 234 234 234 234 234 234 234 233 233 231 231 230 231 232 235 238 242 246 251 256 261 266 271 275 278 281 285 288 292 295 298 299 301 302 303 303 302 301 298 296 294 293 294 294 296 298 300 302 302 299 294 286
251 252 255 260 264 267 266 263 256 248 242 238 236 235 235 235 235 235 235 235 235 235 236 236 235 235 234 234 234 235 237 239 243 247 251 255 260 264 268 272 276 279 282 285 288 292 295 297 298 300 301 303 302 301 299 296 294 292 292 292 292 293 294 294 295 295 292 286 277
250 250 252 256 260 263 265 264 259 252 244 239 237 235 235 235 235 236 236 237 237 238 238 238 238 237 237 237 238 239 241 244 247 251 255 259 263 266 269 273 277 279 282 284 288 291 293 295 297 299 300 301 300 298 296 293 291 289 289 288 289 288 287 286 285 284 281 274 266
249 249 250 253 256 260 263 264 261 256 249 243 239 236 235 235 236 236 237 238 239 240 240 240 240 240 240 241 241 243 245 249 252 255 259 262 265 267 270 273 277 279 281 284 287 290 292 294 296 297 299 299 297 295 292 290 287 286 285 284 284 282 279 276 274 272 269 263 256
246 246 247 250 253 257 260 262 262 260 254 247 242 238 236 236 237 238 239 240 240 241 241 242 242 243 244 244 245 247 250 253 256 259 261 263 265 268 270 274 277 279 281 283 286 289 291 292 294 296 297 296 294 291 289 286 284 282 280 278 276 274 270 266 264 262 259 255 248
242 242 244 246 250 253 256 259 261 260 257 252 247 242 238 238 239 240 241 241 242 242 243 244 245 246 247 249 250 252 255 258 260 261 262 263 265 268 271 274 276 279 281 283 285 287 289 291 292 294 294 293 290 287 284 282 280 277 274 272 269 266 262 259 257 254 252 248 243
Height
1496 1498 1498 1499 1499 1499 1498 1499 1499 1499 1500 1500 1501 1501 1500 1500 1500 1501 1503 1505 1505 1506 1507 1508 1509 1509 1510 1510 1511 1512 1512 1513 1513 1514 1514 1515 1516 1516 1517 1518 1519 1520 1521 1522 1523 1524 1525 1525 1526 1526 1526 1526 1527 1528 1530 1531 1532 1533 1534 1534 1535 1535 1535 1536 1536 1536 1536 1536 1536
1495 1496 1497 1497 1497 1497 1497 1496 1497 1497 1498 1499 1499 1500 1499 1499 1499 1500 1502 1504 1504 1505 1506 1507 1508 1508 1508 1509 1510 1511 1511 1512 1513 1513 1514 1515 1515 1516 1516 1517 1518 1519 1520 1521 1522 1522 1523 1523 1523 1523 1524 1526 1527 1528 1529 1529 1530 1531 1532 1533 1533 1534 1534 1534 1534 1534 1534 1535 1535
1493 1494 1494 1495 1495 1495 1495 1494 1495 1496 1497 1497 1498 1498 1498 1498 1498 1499 1501 1503 1503 1504 1506 1506 1506 1507 1507 1508 1509 1510 1510 1511 1512 1512 1513 1514 1514 1515 1516 1516 1517 1518 1519 1519 1520 1521 1521 1522 1522 1523 1525 1527 1528 1528 1528 1529 1530 1531 1531 1532 1532 1532 1532 1532 1532 1532 1532 1532 1532
1493 1493 1494 1494 1493 1493 1493 1493 1494 1495 1496 1496 1497 1497 1497 1497 1497 1499 1501 1502 1503 1504 1505 1506 1506 1506 1506 1507 1508 1509 1509 1509 1510 1511 1511 1512 1513 1514 1514 1515 1516 1516 1517 1518 1519 1519 1520 1521 1522 1524 1526 1527 1528 1528 1528 1528 1529 1530 1530 1531 1531 1531 1530 1530 1530 1530 1530 1530 1530
1492 1493 1493 1493 1492 1492 1492 1492 1493 1495 1496 1496 1496 1496 1497 1497 1498 1499 1500 1501 1502 1503 1504 1505 1505 1505 1506 1507 1507 1508 1509 1509 1509 1510 1510 1511 1512 1512 1512 1513 1514 1515 1516 1517 1518 1519 1519 1520 1521 1523 1524 1526 1527 1528 1528 1528 1528 1528 1528 1528 1528 1528 1528 1528 1528 1528 1528 1528 1528
1491 1491 1492 1492 1492 1491 1491 1491 1492 1494 1495 1496 1496 1496 1497 1498 1499 1499 1499 1500 1501 1502 1503 1503 1504 1504 1505 1506 1506 1508 1509 1509 1509 1510 1510 1511 1511 1511 1511 1512 1512 1513 1515 1516 1517 1518 1518 1518 1520 1521 1521 1523 1525 1526 1526 1526 1526 1526 1526 1526 1526 1526 1526 1526 1526 1526 1526 1526 1527
1489 1490 1490 1490 1489 1489 1489 1489 1491 1492 1493 1493 1494 1495 1496 1497 1498 1498 1499 1499 1500 1501 1501 1502 1502 1503 1504 1505 1506 1508 1508 1508 1509 1509 1509 1509 1509 1510 1510 1511 1512 1513 1514 1515 1516 1516 1517 1517 1517 1519 1520 1520 1521 1521 1522 1523 1523 1523 1522 1522 1522 1522 1523 1523 1524 1524 1524 1524 1525
1487 1488 1488 1487 1487 1487 1487 1487 1488 1490 1492 1492 1493 1494 1495 1496 1496 1497 1497 1498 1498 1499 1500 1501 1501 1502 1504 1505 1506 1507 1507 1507 1506 1507 1507 1508 1508 1509 1509 1510 1511 1512 1513 1514 1515 1516 1516 1516 1516 1516 1517 1518 1519 1519 1520 1521 1521 1520 1520 1520 1520 1521 1521 1521 1521 1522 1522 1522 1523
1486 1486 1487 1486 1486 1485 1486 1486 1487 1488 1490 1491 1491 1492 1493 1494 1495 1495 1496 1496 1497 1498 1499 1500 1501 1502 1503 1504 1505 1505 1506 1506 1506 1506 1506 1506 1506 1507 1508 1510 1511 1512 1513 1514 1515 1516 1516 1516 1516 1516 1516 1517 1518 1518 1518 1519 1519 1518 1518 1519 1520 1520 1520 1519 1520 1520 1520 1521 1521
1484 1485 1485 1485 1484 1484 1484 1485 1485 1486 1487 1488 1489 1491 1491 1493 1493 1494 1495 1495 1496 1497 1498 1498 1499 1501 1502 1503 1503 1504 1504 1505 1505 1505 1505 1505 1506 1506 1507 1509 1511 1512 1513 1513 1514 1516 1516 1516 1516 1516 1516 1517 1517 1518 1518 1517 1517 1517 1517 1518 1519 1519 1518 1518 1518 1518 1519 1519 1520
1482 1483 1483 1483 1483 1483 1484 1483 1484 1485 1486 1487 1489 1490 1491 1492 1493 1493 1494 1494 1495 1495 1496 1497 1498 1500 1501 1502 1503 1503 1503 1503 1504 1504 1504 1505 1505 1506 1507 1508 1510 1511 1512 1513 1514 1515 1516 1515 1515 1514 1515 1515 1516 1516 1516 1516 1516 1516 1516 1517 1517 1516 1516 1516 1516 1517 1517 1518 1518
1481 1481 1482 1482 1482 1483 1483 1483 1484 1484 1485 1486 1488 1489 1491 1492 1492 1492 1492 1492 1493 1493 1495 1496 1497 1499 1500 1501 1502 1502 1502 1503 1503 1503 1504 1504 1505 1506 1506 1507 1509 1511 1512 1513 1513 1514 1514 1513 1512 1512 1513 1513 1513 1513 1513 1514 1514 1514 1514 1515 1515 1514 1514 1515 1515 1516 1516 1516 1517
1480 1480 1481 1481 1481 1482 1482 1483 1483 1483 1484 1485 1486 1488 1490 1490 1490 1491 1491 1492 1492 1492 1493 1495 1496 1498 1499 1500 1501 1501 1502 1502 1502 1502 1503 1504 1504 1505 1506 1507 1508 1510 1511 1512 1512 1511 1511 1511 1511 1511 1511 1511 1510 1511 1511 1511 1512 1512 1513 1513 1513 1513 1513 1513 1514 1514 1515 1515 1515
1479 1479 1480 1480 1480 1481 1481 1481 1481 1482 1482 1483 1484 1486 1487 1488 1488 1489 1489 1491 1491 1492 1493 1494 1496 1497 1498 1498 1500 1501 1501 1501 1501 1501 1502 1503 1504 1505 1506 1506 1507 1507 1508 1509 1509 1509 1509 1509 1509 1509 1509 1509 1509 1509 1509 1510 1511 1511 1512 1512 1512 1512 1512 1512 1513 1513 1513 1514 1514
1478 1478 1479 1479 1479 1480 1480 1480 1481 1481 1481 1482 1482 1483 1485 1486 1486 1487 1488 1489 1490 1492 1493 1494 1496 1497 1498 1498 1499 1500 1501 1501 1501 1501 1501 1502 1503 1504 1505 1505 1505 1505 1506 1506 1506 1506 1506 1506 1506 1507 1507 1507 1507 1507 1507 1508 1509 1510 1510 1510 1510 1510 1511 1511 1511 1511 1512 1512 1512
1476 1476 1477 1477 1478 1478 1478 1479 1479 1480 1480 1480 1481 1482 1483 1484 1485 1486 1487 1487 1489 1490 1491 1492 1494 1495 1496 1497 1498 1499 1500 1500 1500 1500 1500 1501 1501 1502 1503 1503 1503 1503 1503 1503 1504 1504 1504 1504 1504 1505 1505 1505 1506 1506 1506 1506 1507 1508 1508 1508 1509 1509 1509 1509 1510 1510 1510 1510 1510
1474 1475 1475 1476 1476 1476 1476 1477 1477 1477 1478 1478 1479 1480 1481 1482 1483 1484 1485 1486 1487 1488 1489 1489 1491 1492 1493 1495 1496 1497 1498 1498 1498 1498 1499 1499 1500 1501 1501 1501 1501 1501 1501 1501 1501 1502 1502 1502 1502 1503 1503 1504 1505 1505 1505 1505 1506 1506 1506 1506 1507 1507 1507 1508 1508 1508 1508 1508 1508
1472 1473 1473 1473 1474 1474 1475 1475 1475 1475 1476 1476 1477 1479 1480 1481 1481 1482 1483 1484 1485 1486 1487 1488 1489 1490 1491 1492 1493 1494 1495 1496 1496 1497 1497 1498 1498 1499 1499 1499 1499 1499 1500 1500 1500 1501 1501 1501 1501 1502 1502 1503 1503 1503 1503 1503 1504 1504 1505 1505 1505 1505 1506 1506 1506 1506 1506 1506 1506
1470 1471 1471 1471 1471 1472 1472 1473 1473 1473 1474 1475 1476 1477 1478 1479 1480 1481 1482 1483 1484 1485 1486 1487 1488 1489 1490 1491 1491 1492 1493 1494 1495 1496 1496 1496 1496 1496 1496 1496 1497 1498 1498 1499 1499 1500 1500 1500 1500 1501 1501 1501 1501 1501 1502 1502 1502 1503 1503 1503 1503 1504 1504 1504 1504 1504 1504 1504 1504
1468 1468 1469 1469 1470 1470 1471 1471 1471 1472 1473 1473 1474 1475 1476 1477 1478 1479 1480 1481 1482 1483 1484 1486 1486 1487 1489 1490 1491 1491 1492 1492 1493 1494 1494 1494 1494 1494 1494 1495 1496 1496 1497 1497 1498 1498 1498 1499 1499 1499 1500 1500 1500 1500 1500 1501 1501 1501 1501 1502 1502 1502 1502 1502 1502 1502 1502 1502 1502
1466 1466 1467 1467 1468 1468 1469 1469 1470 1471 1471 1472 1473 1474 1475 1476 1477 1478 1479 1480 1481 1482 1483 1484 1485 1486 1487 1488 1489 1490 1490 1491 1491 1491 1492 1492 1492 1493 1493 1494 1494 1495 1496 1496 1496 1496 1497 1497 1497 1498 1498 1498 1499 1499 1499 1499 1500 1500 1500 1500 1501 1501 1501 1501 1501 1501 1501 1501 1500
1464 1465 1465 1466 1466 1467 1467 1468 1469 1469 1470 1471 1471 1472 1473 1474 1475 1476 1477 1478 1479 1480 1481 1482 1483 1484 1485 1486 1487 1487 1488 1488 1489 1490 1490 1491 1491 1491 1492 1493 1493 1494 1494 1495 1495 1495 1496 1496 1496 1496 1497 1497 1497 1498 1498 1498 1498 1498 1499 1499 1499 1499 1499 1499 1499 1499 1499 1498 1498
1463 1463 1464 1464 1465 1466 1466 1467 1467 1468 1469 1470 1470 1471 1472 1473 1473 1474 1475 1476 1477 1478 1479 1480 1481 1482 1483 1484 1485 1485 1486 1486 1487 1488 1488 1489 1490 1490 1491 1491 1492 1492 1493 1493 1494 1494 1494 1494 1495 1495 1496 1496 1496 1496 1496 1496 1497 1497 1497 1497 1497 1497 1497 1497 1497 1497 1496 1496 1496
1462 1462 1463 1463 1464 1464 1465 1466 1466 1467 1468 1468 1469 1470 1471 1471 1472 1473 1474 1474 1475 1476 1477 1478 1479 1480 1481 1482 1483 1484 1484 1485 1486 1486 1487 1488 1488 1489 1490 1490 1491 1491 1491 1492 1492 1492 1493 1493 1494 1494 1494 1494 1495 1495 1495 1495 1495 1495 1495 1495 1496 1496 1495 1495 1495 1495 1494 1494 1494
1461 1461 1462 1462 1463 1463 1464 1465 1465 1466 1466 1467 1468 1469 1469 1470 1471 1471 1472 1473 1474 1475 1476 1477 1478 1479 1480 1481 1481 1482 1483 1484 1484 1485 1486 1486 1487 1488 1488 1489 1489 1490 1490 1490 1491 1491 1491 1492 1492 1493 1493 1493 1493 1493 1493 1493 1493 1494 1494 1494 1494 1494 1494 1493 1493 1492 1492 1492 1491
1460 1461 1461 1461 1462 1463 1463 1464 1465 1465 1466 1466 1467 1467 1468 1469 1469 1470 1471 1472 1472 1473 1474 1475 1476 1477 1478 1479 1480 1481 1482 1482 1483 1484 1485 1486 1486 1487 1487 1488 1488 1488 1489 1489 1489 1490 1490 1491 1491 1491 1491 1492 1492 1492 1492 1492 1492 1492 1492 1492 1492 1492 1492 1491 1491 1490 1490 1489 1489
1459 1460 1461 1461 1461 1462 1462 1463 1464 1464 1465 1466 1466 1466 1467 1468 1468 1469 1470 1471 1471 1472 1473 1474 1475 1476 1477 1478 1479 1480 1481 1481 1482 1483 1483 1484 1485 1485 1486 1486 1486 1487 1487 1488 1488 1489 1489 1489 1490 1490 1490 1490 1490 1491 1491 1491 1491 1491 1491 1491 1490 1490 1490 1489 1489 1488 1487 1487 1486
1459 1459 1460 1460 1461 1461 1462 1462 1463 1463 1464 1465 1465 1466 1466 1467 1467 1468 1469 1470 1471 1471 1472 1473 1474 1475 1476 1477 1478 1479 1479 1480 1481 1481 1482 1483 1483 1484 1484 1485 1485 1486 1486 1486 1487 1487 1487 1488 1488 1488 1488 1488 1489 1489 1489 1489 1489 1489 1489 1489 1488 1488 1487 1487 1486 1486 1485 1484 1484
1457 1458 1459 1459 1460 1460 1461 1461 1462 1462 1463 1464 1464 1465 1465 1466 1466 1467 1468 1468 1469 1470 1471 1472 1473 1474 1475 1476 1476 1477 1478 1479 1479 1480 1481 1481 1482 1482 1483 1483 1484 1484 1484 1485 1485 1486 1486 1486 1486 1486 1486 1487 1487 1487 1487 1487 1487 1487 1487 1486 1486 1485 1485 1484 1483 1483 1482 1481 1481
1456 1457 1457 1458 1458 1459 1460 1460 1461 1461 1462 1462 1463 1463 1464 1465 1465 1466 1467 1467 1468 1469 1470 1471 1472 1473 1474 1474 1475 1476 1476 1477 1478 1479 1479 1480 1481 1481 1481 1482 1482 1482 1483 1483 1484 1484 1484 1485 1485 1485 1485 1485 1485 1486 1486 1486 1485 1485 1485 1484 1483 1483 1482 1481 1481 1480 1479 1479 1478
1455 1456 1456 1457 1457 1458 1458 1459 1459 1460 1460 1461 1461 1462 1463 1463 1464 1465 1466 1466 1467 1468 1469 1470 1471 1471 1472 1473 1474 1475 1475 1476 1476 1477 1478 1479 1479 1480 1480 1481 1481 1481 1481 1482 1482 1482 1483 1483 1483 1483 1483 1484 1484 1484 1484 1483 1483 1483 1482 1481 1481 1480 1480 1479 1478 1477 1477 1476 1476
1454 1455 1455 1456 1456 1456 1457 1457 1458 1458 1459 1460 1460 1461 1461 1462 1463 1464 1465 1466 1466 1467 1468 1469 1470 1471 1471 1472 1473 1473 1474 1475 1475 1476 1476 1477 1478 1478 1479 1479 1479 1479 1480 1480 1481 1481 1481 1481 1481 1482 1482 1482 1482 1482 1481 1481 1481 1481 1480 1479 1479 1478 1477 1477 1476 1476 1475 1475 1474
1453 1454 1454 1455 1455 1456 1456 1456 1457 1457 1458 1458 1459 1460 1461 1461 1462 1463 1464 1464 1465 1466 1467 1468 1468 1469 1470 1471 1471 1472 1473 1473 1474 1475 1475 1476 1476 1477 1477 1477 1477 1478 1478 1479 1479 1479 1480 1480 1480 1480 1480 1480 1480 1480 1480 1479 1479 1478 1478 1477 1476 1476 1475 1475 1474 1474 1473 1473 1473
1452 1453 1453 1454 1454 1455 1455 1456 1456 1456 1457 1457 1458 1459 1460 1461 1461 1462 1463 1463 1464 1465 1466 1466 1467 1468 1469 1469 1470 1471 1471 1472 1473 1473 1474 1474 1475 1476 1476 1476 1476 1476 1476 1477 1477 1477 1478 1478 1478 1478 1478 1478 1478 1478 1477 1477 1476 1476 1476 1475 1474 1474 1473 1473 1472 1472 1472 1471 1471
1452 1452 1452 1453 1453 1454 1454 1455 1455 1456 1456 1456 1457 1458 1459 1460 1460 1461 1462 1463 1463 1464 1465 1465 1466 1467 1467 1468 1469 1469 1470 1471 1471 1472 1472 1473 1474 1474 1474 1474 1474 1475 1475 1475 1476 1476 1476 1476 1476 1476 1476 1476 1476 1476 1476 1475 1474 1474 1473 1473 1472 1472 1471 1471 1471 1470 1470 1470 1471
1451 1451 1451 1452 1452 1453 1453 1454 1454 1455 1455 1456 1456 1457 1458 1459 1459 1460 1461 1461 1462 1463 1464 1464 1465 1466 1466 1467 1467 1468 1469 1469 1470 1470 1471 1471 1472 1472 1472 1472 1473 1473 1473 1473 1474 1474 1474 1474 1474 1474 1474 1474 1474 1474 1473 1473 1472 1472 1471 1471 1471 1470 1470 1469 1469 1469 1469 1469 1470
1450 1450 1451 1451 1451 1452 1452 1453 1453 1454 1454 1455 1455 1456 1457 1457 1458 1459 1460 1460 1461 1462 1462 1463 1464 1464 1465 1466 1466 1466 1467 1467 1468 1469 1469 1470 1470 1471 1471 1471 1471 1471 1471 1472 1472 1472 1472 1473 1472 1472 1472 1472 1472 1472 1471 1471 1470 1470 1470 1469 1469 1469 1468 1468 1468 1468 1468 1468 1469
1448 1449 1449 1450 1450 1451 1451 1452 1452 1452 1453 1453 1454 1455 1456 1456 1457 1458 1458 1459 1460 1461 1461 1462 1462 1463 1463 1464 1464 1465 1465 1466 1467 1467 1468 1468 1468 1469 1469 1469 1469 1469 1470 1470 1470 1471 1471 1471 1471 1471 1471 1471 1470 1470 1469 1469 1468 1468 1468 1467 1467 1467 1467 1467 1467 1467 1467 1467 1468
1447 1447 1448 1448 1449 1449 1450 1451 1451 1451 1452 1452 1453 1453 1454 1455 1456 1456 1457 1458 1459 1459 1460 1461 1461 1461 1462 1462 1463 1463 1464 1465 1465 1466 1466 1466 1466 1467 1467 1468 1468 1468 1468 1468 1468 1469 1469 1469 1469 1469 1469 1469 1468 1468 1468 1467 1467 1466 1466 1466 1466 1466 1466 1466 1466 1466 1466 1466 1467
1445 1446 1446 1447 1447 1448 1449 1449 1450 1450 1451 1451 1451 1452 1453 1454 1454 1455 1456 1456 1457 1458 1458 1459 1459 1460 1460 1461 1461 1461 1462 1463 1463 1464 1464 1464 1465 1465 1466 1466 1466 1466 1466 1466 1466 1466 1467 1467 1467 1467 1467 1467 1466 1466 1466 1466 1465 1465 1464 1464 1464 1464 1464 1464 1465 1465 1465 1466 1466
1443 1444 1444 1445 1446 1446 1447 1448 1448 1449 1450 1450 1450 1451 1451 1452 1453 1454 1454 1455 1456 1456 1457 1457 1458 1458 1458 1459 1459 1460 1461 1461 1461 1461 1462 1462 1463 1463 1464 1464 1464 1464 1464 1464 1464 1465 1465 1465 1465 1465 1465 1465 1465 1464 1464 1464 1463 1463 1463 1463 1463 1463 1463 1463 1463 1464 1464 1465 1465